Theta_e
352 351 351 351 350 350 350 347 348 348 347 347 340 338 338 336 338 343 343 335 337 342 346 346 347 345 344 344 345 340 333 339 341 341 344 343 338 341 340 335 334 339 337
352 353 351 351 349 351 350 348 348 348 345 345 342 338 338 338 335 338 342 340 336 338 341 347 346 348 347 347 345 346 343 334 336 341 340 341 342 338 334 334 336 340 342
354 354 352 349 351 353 352 350 349 347 344 339 339 338 339 337 337 337 342 343 339 337 338 345 344 347 348 347 347 346 344 342 343 341 339 339 340 339 339 340 337 334 334
355 356 352 352 352 351 349 348 348 343 343 340 338 338 336 336 336 336 337 341 344 343 339 339 341 344 343 346 347 348 346 343 341 342 341 337 338 339 340 339 341 340 338
355 356 353 352 353 352 348 347 347 346 341 338 337 337 337 336 338 338 336 339 339 344 341 337 337 340 342 345 347 346 347 343 341 341 340 340 339 340 338 339 335 337 337
355 356 353 354 353 351 351 351 351 344 341 336 336 338 337 336 337 338 338 338 337 339 342 344 342 342 339 345 343 341 343 342 342 341 341 341 340 339 339 340 340 340 340
355 357 355 354 353 353 353 351 350 347 340 339 338 338 338 337 337 337 336 334 335 337 338 340 345 344 342 338 338 339 340 341 341 341 340 341 340 340 340 340 340 340 340
357 355 355 354 354 353 353 353 351 349 340 338 343 339 343 338 336 336 336 335 334 333 334 338 341 343 343 345 338 330 334 339 343 340 340 340 339 340 340 340 340 340 339
356 357 356 354 354 355 351 355 352 349 347 337 342 342 342 350 338 337 337 337 336 334 335 336 337 338 339 334 332 324 322 322 323 326 330 331 332 335 336 335 334 334 334
355 357 356 354 355 353 351 354 352 351 345 341 338 340 343 346 350 347 338 337 338 336 336 336 336 336 336 334 331 328 322 322 319 317 317 317 317 317 317 317 317 317 317
356 355 356 355 355 356 353 353 354 352 349 347 339 339 339 337 339 344 343 341 338 336 336 335 336 336 337 335 336 327 326 326 326 326 326 325 324 323 322 318 317 316 318
356 356 355 357 356 356 355 357 356 355 353 346 341 340 341 340 341 340 341 341 339 337 335 335 336 334 336 336 335 332 327 327 327 327 327 328 328 327 327 326 326 325 325
350 354 355 357 356 357 356 356 358 356 355 352 347 340 340 340 340 339 338 338 338 338 337 335 335 335 334 335 336 333 330 328 327 327 327 326 326 327 327 328 328 328 328
350 350 357 356 357 357 357 357 357 357 354 354 351 343 340 341 341 340 339 338 340 338 337 337 336 335 335 335 335 335 335 333 329 328 328 328 328 327 327 326 326 327 328
352 353 356 358 358 358 358 358 356 358 355 355 352 349 342 338 340 340 339 338 337 341 345 339 335 335 335 335 335 335 335 334 332 331 329 328 327 327 327 327 327 327 327
356 356 355 356 358 358 358 358 356 356 357 355 352 349 345 338 337 340 338 337 336 335 338 337 338 336 334 334 335 333 334 335 334 330 328 328 328 328 328 328 328 328 328
361 356 359 358 358 359 359 359 357 355 358 357 353 350 348 343 339 338 338 337 336 336 335 335 336 336 337 338 337 336 335 336 335 333 333 329 328 326 325 325 327 329 329
361 363 360 361 360 359 359 360 360 354 357 358 356 352 349 348 344 340 339 339 337 337 336 339 336 339 339 338 339 339 339 335 336 335 334 332 330 327 324 326 328 329 327
363 362 362 363 362 360 359 360 361 360 358 358 357 356 352 349 347 340 338 339 339 339 339 338 337 338 338 340 340 341 340 339 338 335 334 333 330 328 327 325 325 324 325
364 363 362 363 363 362 360 360 361 361 360 358 358 358 356 352 349 346 344 340 340 339 339 339 337 335 336 338 338 337 338 338 338 336 334 333 331 330 329 329 326 325 323
365 364 364 363 365 364 361 361 360 361 362 361 359 359 358 355 351 348 344 343 339 340 336 337 338 337 335 336 339 338 337 336 338 337 335 335 334 332 332 331 330 327 325
366 365 365 364 365 365 361 358 360 360 361 362 361 360 358 356 352 348 345 344 342 342 340 336 336 338 339 338 338 337 337 337 336 334 335 335 334 333 332 331 329 327 326
367 367 366 366 365 365 362 358 357 359 361 362 362 361 360 356 354 350 346 344 342 341 341 342 340 339 341 340 340 341 339 339 336 336 334 335 333 332 329 326 325 322 320
367 367 367 367 366 365 364 361 357 356 359 360 361 361 361 357 355 353 350 345 342 340 339 338 341 342 340 342 344 342 340 339 337 336 335 335 332 329 325 324 324 321 318
368 367 367 367 367 366 365 363 360 356 358 358 360 361 360 360 360 353 352 352 347 343 341 338 334 339 340 341 341 340 338 337 335 335 334 333 329 325 322 322 321 318 314
368 367 367 367 367 367 366 364 363 358 357 359 359 360 359 359 360 357 352 353 352 348 344 341 338 337 337 339 339 339 337 336 336 334 331 328 327 322 321 320 318 316 314
Wind_Speed
3 2 1 1 2 2 4 4 3 3 1 1 4 5 4 3 6 12 11 9 7 6 6 8 9 9 8 7 7 6 7 7 5 4 4 4 3 3 2 2 2 2 3
4 4 4 5 4 4 3 4 2 3 3 7 5 4 7 6 2 3 12 10 8 6 6 8 11 10 10 9 8 8 6 6 6 6 5 5 5 3 4 3 3 3 4
4 3 1 2 6 1 1 2 4 3 1 5 3 2 2 5 6 2 9 11 9 8 8 10 10 12 11 10 10 9 10 9 9 8 7 7 6 7 6 6 5 5 5
5 4 1 1 3 1 2 1 3 4 1 3 4 3 4 6 5 4 3 2 11 8 9 8 8 9 7 8 9 9 8 8 8 9 8 8 8 8 7 7 7 7 7
8 6 3 0 3 2 1 0 2 5 4 3 2 4 3 5 3 8 4 3 4 10 9 9 7 7 7 5 4 5 7 8 9 9 9 9 9 10 9 9 8 7 9
11 9 8 5 4 4 2 1 3 4 3 1 7 7 6 5 2 8 7 7 4 7 6 6 7 4 5 4 3 3 4 7 8 8 8 8 10 10 10 10 9 10 10
12 11 6 5 5 3 3 4 5 3 4 3 9 9 6 6 3 3 5 7 3 3 4 4 6 6 5 4 2 1 2 1 2 4 5 5 7 8 8 8 9 10 10
13 12 9 8 7 5 6 6 5 5 4 6 7 7 4 7 7 6 4 5 3 5 5 1 6 4 10 8 4 2 2 2 3 2 0 0 1 1 3 4 5 5 5
15 14 11 10 9 8 8 8 6 6 7 6 7 6 2 3 11 7 4 4 2 4 3 4 5 3 3 4 4 5 5 4 3 3 2 2 2 2 1 1 2 4 5
16 15 14 12 13 11 12 8 8 8 5 8 7 7 4 7 3 2 8 6 3 3 3 3 5 5 3 7 5 5 5 5 5 5 5 5 4 4 3 3 3 2 2
18 17 16 14 14 12 10 10 8 8 7 8 8 8 5 5 4 2 5 8 8 7 5 3 3 6 4 1 8 6 7 6 6 6 5 4 4 4 4 3 2 2 2
19 20 19 17 16 15 11 10 11 10 10 8 7 7 9 9 10 8 5 12 8 11 8 7 6 6 6 5 4 8 5 5 4 3 1 1 3 3 3 3 4 4 5
21 24 25 19 19 17 14 14 14 11 11 11 11 9 9 8 5 4 4 1 2 6 4 8 9 7 7 7 7 9 7 6 5 4 3 4 6 7 7 7 6 6 6
21 18 28 24 22 20 18 16 16 14 14 13 13 13 10 9 7 6 5 4 4 7 7 8 6 7 8 8 8 10 8 9 8 8 8 8 9 10 12 12 12 12 12
20 20 21 22 23 23 21 20 19 18 15 16 14 14 13 10 9 8 7 6 7 5 5 11 6 9 6 8 10 7 10 10 9 10 11 11 12 13 14 15 15 15 15
25 17 24 23 24 25 24 23 21 19 18 17 16 17 15 13 11 10 9 8 8 8 6 5 6 6 8 7 10 9 9 9 11 12 11 11 13 15 16 18 17 17 17
27 31 23 26 26 27 26 26 25 21 23 21 19 18 17 17 13 13 11 12 11 9 8 8 4 8 9 7 4 7 11 11 14 16 13 12 13 16 18 18 16 16 16
32 28 29 28 28 28 28 28 27 26 23 24 22 21 20 18 19 15 15 14 13 11 11 7 9 7 11 13 13 12 13 16 15 12 13 12 16 18 16 14 13 13 15
36 34 31 31 31 31 30 31 30 29 26 26 25 25 24 23 21 21 21 16 16 14 12 13 11 12 12 13 15 12 15 16 15 14 17 17 16 13 12 15 15 16 17
37 36 35 35 35 35 35 36 36 34 32 31 32 29 28 27 26 24 20 23 16 16 16 15 14 14 14 14 12 13 15 20 18 12 12 11 15 14 16 13 14 14 14
39 38 37 37 37 37 37 37 36 34 34 34 33 31 28 28 29 27 25 23 22 20 19 18 16 15 15 14 16 15 18 15 14 16 11 12 14 15 17 20 18 14 13
40 39 40 41 41 41 41 43 40 37 35 33 31 29 28 29 31 32 32 26 27 24 22 20 19 17 14 9 11 14 12 11 8 7 10 11 15 14 15 2 7 10 8
36 40 41 40 41 43 45 47 47 41 36 35 33 32 30 30 35 37 38 36 29 30 27 24 21 18 9 11 13 7 12 12 11 7 6 10 13 15 10 6 5 6 8
39 38 39 40 41 44 48 50 50 49 40 35 36 37 36 35 36 35 31 35 35 30 34 30 22 21 20 15 7 11 12 11 12 16 16 10 11 12 10 9 13 12 10
37 39 38 39 42 44 45 50 50 44 42 40 38 38 38 37 36 41 35 31 31 32 31 36 33 25 24 18 14 12 13 13 13 15 11 14 8 9 9 12 13 10 9
35 33 37 40 42 43 42 45 51 42 40 41 41 40 44 41 40 41 40 35 31 33 32 30 32 33 29 23 21 23 15 17 16 13 9 11 8 9 11 13 10 11 12
Wind_Direction
114 127 142 339 123 52 116 81 22 7 341 7 97 15 49 38 13 116 126 128 128 144 170 174 188 187 184 186 184 182 187 189 189 196 203 206 196 213 234 276 284 296 329
155 214 188 232 145 17 56 27 274 334 292 120 93 21 50 71 24 305 134 145 141 144 162 179 183 189 190 192 193 192 193 198 211 231 221 226 232 240 250 267 278 292 302
187 214 123 320 109 82 291 263 298 181 207 106 124 33 119 103 102 123 123 155 148 139 144 169 182 189 191 195 201 207 207 210 212 223 230 232 239 250 259 266 269 278 286
209 217 243 276 77 50 305 1 347 303 61 131 95 256 106 98 135 166 64 82 154 149 127 144 168 183 192 200 211 220 228 235 233 237 246 245 242 245 255 272 268 278 287
198 232 235 311 284 235 115 5 246 306 95 14 189 128 110 84 173 98 116 178 136 139 129 115 127 173 190 202 225 244 243 249 252 255 257 262 267 265 261 256 267 268 277
205 217 230 215 247 201 92 187 333 44 18 235 110 97 88 99 95 139 142 116 138 162 110 153 134 159 158 168 217 242 249 243 242 244 249 260 264 271 278 278 278 278 278
210 215 209 189 218 203 156 185 194 142 120 167 158 145 113 151 132 140 86 82 99 38 76 147 177 157 146 127 132 174 218 227 254 271 275 275 274 271 271 276 280 283 280
214 223 220 222 213 175 176 204 242 274 125 200 265 178 157 158 159 118 92 101 56 113 124 63 101 136 164 119 125 141 106 87 55 62 183 221 342 328 273 283 289 295 295
218 226 214 216 212 226 193 192 210 253 253 184 257 301 147 186 146 164 178 120 170 121 104 93 94 115 150 79 103 88 78 88 104 99 99 72 68 81 85 45 333 331 328
216 220 210 214 210 214 174 177 205 242 253 173 203 240 320 337 55 188 169 173 210 209 123 203 122 134 176 138 107 115 110 107 97 93 80 74 70 69 76 86 88 83 75
210 214 212 211 212 215 196 178 194 215 211 258 200 191 205 235 254 6 186 185 191 215 177 229 175 166 167 221 152 143 134 127 114 99 90 80 71 59 37 23 18 360 341
208 215 213 206 210 211 212 194 201 207 225 217 240 215 199 207 189 225 212 186 207 186 204 209 195 232 208 194 165 166 173 178 165 166 141 25 17 16 8 348 334 326 321
216 208 208 207 212 213 213 210 200 208 213 220 230 223 227 232 246 243 283 322 241 165 188 237 224 226 232 223 210 201 212 223 223 244 266 277 272 271 271 265 262 266 272
216 216 197 205 214 212 213 210 214 213 212 218 221 230 239 227 230 230 237 267 198 210 189 235 204 234 226 234 237 209 217 241 246 257 260 269 274 275 272 274 273 273 273
224 205 198 203 212 215 212 212 217 209 217 213 218 223 229 234 224 225 225 242 269 277 203 174 235 196 220 208 226 230 231 238 233 252 253 265 276 282 284 282 277 276 279
219 219 200 209 211 212 214 211 215 219 212 216 218 210 215 230 226 222 227 232 244 266 292 140 204 189 195 224 201 212 230 228 247 252 249 255 265 273 280 285 284 284 287
217 220 205 204 209 212 211 211 219 221 210 218 221 218 208 225 232 222 224 231 236 237 258 271 224 178 184 224 198 214 230 237 252 244 244 255 271 280 287 285 281 279 279
215 214 213 207 209 211 211 212 215 222 217 215 220 219 214 217 226 233 223 226 232 232 236 244 265 195 209 222 227 238 241 251 254 249 229 261 282 287 283 281 280 280 283
215 215 214 213 210 211 211 213 216 220 221 218 219 217 215 211 213 218 222 224 227 229 227 241 247 229 237 215 218 236 236 244 259 259 256 268 264 268 286 289 278 276 275
213 214 215 215 214 214 213 213 214 216 217 219 218 217 214 211 212 212 217 222 228 223 222 232 235 242 236 232 225 244 233 235 243 251 229 253 272 271 277 278 269 271 267
212 214 213 215 216 217 218 218 219 220 220 221 220 216 217 214 213 211 210 215 217 219 229 221 230 240 243 238 205 232 239 253 231 221 260 266 277 263 266 264 252 256 254
213 211 213 214 215 217 221 224 217 219 222 225 224 221 218 217 217 218 215 213 214 210 218 232 235 234 238 228 250 258 265 272 257 222 233 261 278 285 287 309 221 228 229
214 215 215 214 217 220 221 222 221 219 221 221 221 220 216 219 215 215 220 220 215 219 220 224 242 245 238 218 232 247 263 265 267 263 259 282 284 294 298 293 312 318 312
215 217 218 219 220 223 223 223 222 219 222 223 221 220 218 217 213 205 211 221 222 220 222 221 228 237 241 236 214 229 243 255 262 256 250 245 268 285 294 292 290 285 290
216 218 220 220 223 227 226 226 224 218 221 224 223 221 221 219 215 207 204 210 215 218 224 227 224 230 232 224 217 218 227 232 244 255 228 226 259 281 288 284 286 274 305
221 220 223 224 225 229 229 229 226 220 221 223 224 224 221 219 217 212 205 205 206 211 208 212 220 226 229 228 218 214 230 239 239 235 234 229 242 274 286 278 271 273 289